Regional Weather Roundup
Issued by NWS Boston, MA

Home | Current Version | Previous Version | Text Only | Print | Product List | Glossary On
Versions: 1 2 3 4 5 6 7 8 9 10 11 12 13 14 15 16 17 18 19 20 21 22 23 24 25 26 27 28
000
ASUS41 KBOX 261410
RWRBOX

REGIONAL WEATHER ROUNDUP
NATIONAL WEATHER SERVICE TAUNTON MA
1000 AM EDT TUE JUL 26 2016

NOTE:  "FAIR" INDICATES FEW OR NO CLOUDS BELOW 12,000 FEET WITH NO
SIGNIFICANT WEATHER AND/OR OBSTRUCTIONS TO VISIBILITY.  THE FOLLOWING
OBSERVATION LOCATIONS DO NOT REPORT PRESENT WEATHER...PROVINCETOWN...
SMITHFIELD...BLOCK ISLAND...KEENE...AND OXFORD.

MAZALL-261500-
EASTERN MASSACHUSETTS

CITY           SKY/WX    TMP DP  RH WIND       PRES   REMARKS
BOSTON         MOSUNNY   86  61  42 NW16G23   29.79F
BEVERLY        SUNNY     86  62  44 NW17G23   29.78F
LAWRENCE       SUNNY     86  60  41 NW9       29.81S
BEDFORD        MOSUNNY   86  58  38 NW20      29.79F
BLUE HILL        N/A     83  61  47 NW14G25   29.82F
NORWOOD        SUNNY     87  64  46 NW10      29.80F
MARSHFIELD     MOSUNNY   86  63  45 W8G16     29.79S
PLYMOUTH       SUNNY     85  63  47 W10       29.82S
TAUNTON        SUNNY     84  64  50 W8G17     29.81F
NEW BEDFORD    SUNNY     86  67  52 W12G18    29.82S
$$

MAZALL-261500-
CAPE COD AND THE ISLANDS

CITY           SKY/WX    TMP DP  RH WIND       PRES   REMARKS
FALMOUTH       SUNNY     81  64  57 NW15      29.80F
HYANNIS        SUNNY     85  62  46 NW12G18   29.80S
CHATHAM        SUNNY     85  64  49 NW8G17    29.82S
PROVINCETOWN   SUNNY     81  68  64 W12       29.80F
NANTUCKET      SUNNY     77  70  79 W13       29.83S
MARTHAS VNYRD  SUNNY     81  69  67 W9        29.83S
$$

MAZALL-261500-
CENTRAL AND WESTERN MASSACHUSETTS

CITY           SKY/WX    TMP DP  RH WIND       PRES   REMARKS
WORCESTER      MOSUNNY   79  61  53 W15G23    29.87S
FITCHBURG      SUNNY     86  60  41 W13G21    29.83S
ORANGE         MOSUNNY   83  61  47 NW14G21   29.85S
SPRINGFIELD    SUNNY     84  61  46 W20G25    29.84F
WESTFIELD      PTSUNNY   85  60  42 NW14G22   29.86S
NORTH ADAMS    MOSUNNY   77  62  59 W17       29.88F
PITTSFIELD     PTSUNNY   75  63  66 W14G23    29.91R
$$

RIZALL-261500-
RHODE ISLAND

CITY           SKY/WX    TMP DP  RH WIND       PRES   REMARKS
PROVIDENCE     MOSUNNY   84  66  54 W12       29.84S
NEWPORT        SUNNY     82  67  60 VRB6      29.84F
BLOCK ISLAND   SUNNY     76  69  79 W12       29.87F
SMITHFIELD       N/A     82  64  54 NW10G20   29.85S VSB 1/2
WESTERLY       SUNNY     84  66  54 NW8       29.86F
$$

CTZALL-261500-
CONNECTICUT

CITY           SKY/WX    TMP DP  RH WIND       PRES   REMARKS
BRADLEY INTL   MOSUNNY   86  62  44 W13       29.86S
HARTFORD       SUNNY     84  67  56 VRB6      29.86F
BRIDGEPORT     SUNNY     79  70  74 SW7       29.89S
DANBURY        MOSUNNY   78  69  73 W6        29.92S
GROTON         SUNNY     83  67  58 W10       29.86S
NEW HAVEN      MOSUNNY   78  70  76 VRB3      29.89S
CHESTER        FAIR      79  68  69 VRB6      29.90S
MERIDEN        SUNNY     82  67  60 VRB7      29.89S
WILLIMANTIC    NOT AVBL
OXFORD         MOSUNNY   75  66  73 NW5       29.94R
$$

MEZ002-015-021-024-NHZ003-005-008-011-012-014-VTZ005-008-261500-
NORTHERN NEW ENGLAND

CITY           SKY/WX    TMP DP  RH WIND       PRES   REMARKS
PORTLAND ME    SUNNY     83  66  56 W12       29.75F
BANGOR ME      MOSUNNY   80  68  66 W5        29.73F
CONCORD NH     SUNNY     84  61  45 W8        29.81S
MANCHESTER NH  MOSUNNY   83  60  45 NW13G21   29.80S
NASHUA NH      MOSUNNY   84  62  47 NW13G20   29.81S
PORTSMOUTH NH  MOSUNNY   81  67  61 W9        29.77S
JAFFREY NH     SUNNY     80  58  46 NW10G18   29.86F
KEENE NH       MOSUNNY   81  60  48 NW10G16   29.85S
BURLINGTON VT  FAIR      79  61  53 SW10      29.83S
MT. WASHINGTON DRZL/FOG  52  52 100 NW39        N/A  VSB 0
$$

NYZ052-076-261500-
EASTERN NEW YORK

CITY           SKY/WX    TMP DP  RH WIND       PRES   REMARKS
ALBANY         MOSUNNY   79  63  57 NW17      29.89S
NEW YORK CITY  MOSUNNY   83  68  60 N7        29.90F
$$

ANZALL-261500-
MARINE OBSERVATIONS

STATION/POSITION TIME  TEMP    WIND        PRES    VSBY  WAVE
                       AIR SEA DIR/SP/G                  HT/PER
                 (UTC) (F)     (DEG/KT/KT) (MB)    (MI)  (FT/S)
BOSTON BUOY      1350   74 71  280/ 10/ 12 1008.8S         1/ 8
BUZZARDS BAY     1300   71     260/ 16/ 16 1010.8F
NANTUCKET SOUND  1350   75 72  270/ 12/ 14 1009.4F         1/ 3
MASS BAY-STELLWA 1304   74 68  290/  8/ 12 1008.5S  1 7/8  1/ 3
ISLE OF SHOALS   1300   76     280/ 19/ 20 1007.7F
S OF BLOCK IS    1325      71                N/A           3/ 6
$$

......................KEY.........................
  SKY/WX - SKY CONDITION/PRESENT WEATHER
  TMP    - TEMPERATURE IN FAHRENHEIT
  DWPT   - DEWPOINT IN FAHRENHEIT
  RH     - RELATIVE HUMIDITY IN PERCENT
  WIND   - DIRECTION AND SPEED IN MPH
  PRES   - MEAN SEA LEVEL PRESSURE IN INCHES OF HG
  WCI    - WIND CHILL INDEX
  VSB    - VISIBILITY IN MILES
  HX     - HEAT INDEX
  TC     - TEMPERATURE IN CELSIUS
  VRB    - VARIABLE WIND DIRECTION
  N/A    - NOT AVAILABLE




USA.gov is the U.S. government's official web portal to all federal, state and local government web resources and services.